Location: Klamath Falls
(42.2250°N, 121.7810°W)
Time: 14:17:30
(UTC-08:00)

ISS - Visible Passes

Search period start: 19 November 2018 00:00
Search period end: 29 November 2018 00:00
Orbit: 401 x 408 km, 51.6° (Epoch: 20 November)

Date Brightness Start Highest point End Pass type
(mag) Time Alt. Az. Time Alt. Az. Time Alt. Az.
22 Nov -1.3 18:56:00 10° SW 18:56:54 17° SSW 18:56:54 17° SSW visible
23 Nov -2.5 18:04:24 10° SSW 18:07:07 25° SE 18:07:13 25° SE visible
24 Nov -1.6 17:13:28 10° SSE 17:15:10 13° SE 17:16:51 10° E visible
24 Nov -2.4 18:48:01 10° WSW 18:50:08 37° WSW 18:50:08 37° WSW visible
25 Nov -3.7 17:55:54 10° SW 17:59:06 60° SE 18:00:16 34° ENE visible
26 Nov -2.7 17:04:06 10° SSW 17:07:01 31° SE 17:09:56 10° ENE visible
26 Nov -2.4 18:40:26 10° W 18:43:00 34° NW 18:43:00 34° NW visible
27 Nov -3.5 17:47:59 10° WSW 17:51:11 58° NNW 17:52:59 23° NE visible
28 Nov -1.9 18:33:05 10° WNW 18:35:34 23° NNW 18:35:34 23° NNW visible
